Location: *
(43.0833°N, 13.0500°E)
Time: 12:31:17
(UTC+00:00)

CZ-4 R/B - Pass Details

Date: 15 November 2019
Orbit: 529 x 601 km, 97.8° (Epoch: 06 December)

Event Time Altitude Azimuth Distance (km) Brightness Sun altitude
Rises 16:53:10 0° 148° (SSE) 2,822 4.8 -12.7°
Reaches altitude 10° 16:55:26 10° 141° (SE) 1,918 3.8 -13.1°
Maximum altitude 16:59:20 40° 72° (ENE) 866 1.8 -13.8°
Drops below altitude 10° 17:03:11 10° 2° (N) 1,897 3.9 -14.5°
Sets 17:05:24 0° 355° (N) 2,788 4.8 -14.9°
